Location: Ca��n la Puerta
(32.5440°N, 116.6804°W)
Time: 02:22:39
(UTC+00:00)

ATLAS 3B CENTAUR R/B - Pass Details

Date: 15 June 2021
Orbit: 218 x 3593 km, 28.1° (Epoch: 02 August)

Event Time Altitude Azimuth Distance (km) Brightness Sun altitude
Rises 11:59:16 0° 270° (W) 7,482 6.6 -8.0°
Reaches altitude 10° 12:05:04 10° 268° (W) 6,103 6.1 -6.9°
Maximum altitude 12:22:27 69° 191° (S) 2,023 4.0 -3.8°
Drops below altitude 10° 12:30:44 10° 109° (ESE) 3,119 5.8 -2.3°
Sets 12:32:47 0° 106° (ESE) 3,753 6.3 -2.0°
